This demonstration page uses our WeatherBlox Daily Observations layout. Learn more.

Left ArrowRight Arrow

Hourly Observations for April 29, 2020

Temp ( °F °C ) Dew Point ( °F °C ) Humidity (%) Winds ( mph kmh ) Pressure ( in mb ) Visibility ( mi km ) Precip ( " mm )
12:52 am 00:52 Cloudy 53 11.7 42 5.6 66 66 NW 15 24 29.81 1009 10 16 0.00 0.00
1:52 am 01:52 Cloudy 52 11.1 43 6.1 72 72 WNW 15 24 29.80 1009 10 16 0.00 0.00
2:52 am 02:52 Cloudy 53 11.7 44 6.7 72 72 NNW 20 31 29.80 1009 10 16 0.00 0.00
3:52 am 03:52 Cloudy with Drizzle 53 11.7 45 7.2 74 74 NNW 17 28 29.80 1009 10 16 0.00 0.00
4:52 am 04:52 Cloudy with Light Rain 51 10.6 46 7.8 83 83 NNW 15 24 29.82 1010 10 16 0.01 0.25
5:52 am 05:52 Cloudy 52 11.1 46 7.8 80 80 NNW 20 31 29.83 1010 10 16 0.00 0.00
6:21 am 06:21 Cloudy 52 11.1 46 7.8 80 80 NNW 22 35 29.86 1011 10 16 0.00 0.00
6:52 am 06:52 Cloudy 52 11.1 46 7.8 80 80 N 29 46 29.85 1011 10 16 0.00 0.00
7:52 am 07:52 Mostly Cloudy 52 11.1 46 7.8 80 80 NNW 25 41 29.88 1012 10 16 0.00 0.00
8:14 am 08:14 Mostly Cloudy 52 11.1 45 7.2 77 77 NNW 31 50 29.90 1012 10 16 0.00 0.00
8:46 am 08:46 Mostly Cloudy 54 12 43 6 67 67 NNW 28 44 29.91 1013 8 13 0.00 0.00
8:47 am 08:47 Mostly Cloudy 54 12.2 43 6.1 67 67 NNW 30 48 29.91 1013 8 13 0.00 0.00
9:52 am 09:52 Partly Cloudy 57 13.9 42 5.6 58 58 N 30 48 29.92 1013 10 16 0.00 0.00
10:52 am 10:52 Mostly Sunny 60 15.6 41 5 50 50 N 25 41 29.94 1014 7 11 0.00 0.00
11:52 am 11:52 Partly Cloudy with Blowing Dust 63 17.2 42 5.6 47 47 NNW 35 56 29.95 1014 6 10 0.00 0.00
12:52 pm 12:52 Partly Cloudy with Blowing Dust 66 18.9 42 5.6 42 42 NNW 26 43 29.95 1014 6 10 0.00 0.00
1:52 pm 13:52 Partly Cloudy with Blowing Dust 68 20 41 5 38 38 NNW 28 44 29.95 1014 5 8 0.00 0.00
2:52 pm 14:52 Partly Cloudy with Blowing Dust 68 20 40 4.4 36 36 NNW 28 44 29.95 1014 6 10 0.00 0.00
3:52 pm 15:52 Partly Cloudy with Blowing Dust 70 21.1 38 3.3 31 31 NNW 30 48 29.93 1014 6 10 0.00 0.00
4:52 pm 16:52 Partly Cloudy with Blowing Dust 71 21.7 37 2.8 29 29 N 26 43 29.93 1014 6 10 0.00 0.00
5:52 pm 17:52 Partly Cloudy 70 21.1 35 1.7 28 28 N 31 50 29.95 1014 10 16 0.00 0.00
6:52 pm 18:52 Partly Cloudy 69 20.6 36 2.2 30 30 N 24 39 29.96 1015 10 16 0.00 0.00
7:52 pm 19:52 Mostly Sunny 66 18.9 39 3.9 37 37 NNW 16 26 29.98 1015 10 16 0.00 0.00
8:52 pm 20:52 Mostly Clear 62 16.7 40 4.4 44 44 NNW 12 19 29.99 1016 10 16 0.00 0.00
9:52 pm 21:52 Clear 58 14.4 40 4.4 51 51 N 5 7 30.01 1016 10 16 0.00 0.00
10:52 pm 22:52 Clear 53 11.7 40 4.4 61 61 N 6 9 30.02 1017 10 16 0.00 0.00
11:52 pm 23:52 Partly Cloudy 53 11.7 40 4.4 61 61 N 5 7 30.02 1017 10 16 0.00 0.00

Powered by AerisWeather